CST,Max TemperatureF,Mean TemperatureF,Min TemperatureF,Max Dew PointF,MeanDew PointF,Min DewpointF,Max Humidity, Mean Humidity, Min Humidity, Max Sea Level PressureIn, Mean Sea Level PressureIn, Min Sea Level PressureIn, Max VisibilityMiles, Mean VisibilityMiles, Min VisibilityMiles, Max Wind SpeedMPH, Mean Wind SpeedMPH, Max Gust SpeedMPH,PrecipitationIn, CloudCover, Events, WindDirDegrees
2013-1-1,15,3,-9,12,-1,-15,92,78,67,30.24,30.18,30.03,10,10,6,14,7,,0.00,5,Snow,226
2013-1-2,30,16,1,27,14,-4,100,88,78,30.12,30.00,29.95,10,7,0,15,10,23,0.00,6,Rain-Snow,246
2013-1-3,26,16,6,23,8,1,92,81,73,30.31,30.23,30.12,10,10,8,17,13,23,0.00,5,Rain-Snow,291
2013-1-4,26,17,8,19,13,5,93,83,69,30.17,30.12,30.08,10,10,8,17,12,17,0.00,0,Snow,221
2013-1-5,24,18,12,19,14,9,93,85,74,30.08,29.97,29.88,10,9,5,21,12,28,0.00,2,Snow,229
2013-1-6,21,16,10,16,10,3,93,81,67,30.25,30.16,30.05,10,10,9,15,12,21,0.00,1,,247
2013-1-7,33,24,15,28,22,14,100,86,75,30.06,29.97,29.93,10,9,0,30,15,38,0.00,0,Fog-Snow,213
2013-1-8,35,24,12,32,23,10,100,92,81,30.01,29.88,29.77,10,7,0,22,9,28,0.00,1,Fog-Snow,189
2013-1-9,37,30,23,32,28,21,100,88,75,30.37,30.25,30.01,10,10,10,18,12,21,0.00,0,,224
2013-1-10,37,32,28,34,29,25,100,83,65,30.32,30.03,29.69,10,7,0,20,13,25,0.07,4,Fog-Rain,145
2013-1-11,42,38,32,43,37,32,100,100,100,29.69,29.50,29.39,10,2,0,22,13,30,0.00,8,Fog-Snow,173
2013-1-12,32,21,8,30,9,1,100,71,58,30.08,29.91,29.53,10,10,3,32,22,39,0.00,7,Rain-Snow,284
2013-1-13,15,10,5,5,0,-4,85,70,62,30.25,30.12,30.03,10,10,7,16,12,23,0.00,5,Rain-Snow,309
2013-1-14,24,15,6,14,8,1,86,76,59,30.39,30.32,30.25,10,10,10,12,7,18,0.00,0,Snow,233
2013-1-15,32,22,12,19,14,9,86,73,51,30.29,30.15,29.91,10,10,9,23,12,26,0.00,2,Snow,200
2013-1-16,44,30,15,36,24,9,93,81,70,30.21,29.91,29.77,10,10,8,21,15,30,0.00,5,,278
2013-1-17,32,20,8,25,10,-2,86,66,46,30.40,30.33,30.22,10,10,10,15,9,23,0.00,5,Snow,325
2013-1-18,48,37,26,34,30,23,93,81,54,30.23,29.92,29.80,10,10,8,24,14,30,0.00,0,,206
2013-1-19,46,27,8,32,24,0,93,75,57,30.25,29.93,29.75,10,10,10,29,14,41,0.00,5,Snow,291
2013-1-20,12,8,3,3,0,-8,85,71,61,30.39,30.31,30.26,10,9,1,18,13,25,0.00,6,Rain-Snow,317
2013-1-21,6,0,-7,-4,-11,-18,78,64,55,30.36,30.30,30.27,10,10,4,20,14,29,0.00,5,Snow,299
2013-1-22,14,5,-4,7,-4,-11,78,66,48,30.37,30.29,30.19,10,10,10,15,7,14,0.00,4,Snow,253
2013-1-23,21,10,-2,12,3,-11,79,67,53,30.52,30.25,30.10,10,10,9,23,13,34,0.00,5,Rain-Snow,312
2013-1-24,17,6,-2,1,-7,-13,66,54,38,30.57,30.41,30.12,10,10,9,22,11,26,0.00,2,Snow,117
2013-1-25,30,18,5,19,6,-2,80,63,46,30.27,30.11,30.01,10,10,9,28,14,32,0.00,3,Snow,299
2013-1-26,30,16,1,14,4,-4,78,60,40,30.28,30.18,30.05,10,10,10,24,10,34,0.00,4,Snow,132
2013-1-27,32,30,28,32,27,14,100,87,55,30.05,29.86,29.74,10,4,0,21,14,26,0.15,7,Fog-Rain,147
2013-1-28,35,32,30,36,32,30,100,100,100,29.87,29.77,29.56,2,0,0,15,5,18,0.04,8,Fog-Rain-Snow,126
2013-1-29,33,30,26,34,31,25,100,98,93,29.68,29.61,29.51,10,5,0,23,11,32,0.00,8,Fog-Snow,345
2013-1-30,26,17,8,25,12,3,100,80,67,29.80,29.68,29.56,10,8,1,29,22,39,0.00,8,Rain-Snow,332
2013-1-31,8,2,-5,3,-8,-15,79,65,56,30.29,30.05,29.81,10,10,6,26,19,38,0.00,5,Snow,317